Location: Newark
(21.1700°N, 79.6500°E)
Time: 16:39:30
(UTC+00:00)

N. Korean satellite - Pass Details

Date: 15 December 2019
Orbit: 454 x 507 km, 97.2° (Epoch: 24 January)

Event Time Altitude Azimuth Distance (km) Brightness Sun altitude
Rises 23:25:15 0° 42° (NE) 2,477 10.5 -23.9°
Reaches altitude 10° 23:28:48 10° 81° (E) 1,592 10.0 -23.1°
Maximum altitude 23:29:40 11° 96° (E) 1,543 10.2 -22.9°
Drops below altitude 10° 23:30:32 10° 111° (ESE) 1,587 10.3 -22.7°
Sets 23:34:01 0° 150° (SSE) 2,453 10.8 -22.0°
